Retour au catalogue

STARLINK-34174

ActifCommunicationsVLEO
NORAD 64097·PAYLOAD·🇺🇸 United States

Lancé May 23, 2025 depuis Vandenberg Space Force Base

Loading…

Prochains Passages (prochaines 24 heures)

TLE

FraisSource: CelesTrak SupGP

Époque: Sep 15, 2026, 02:18 UTC

1 64097C 25110B   26258.09631944 -.00051731  00000+0 -15287-2 0  2585
2 64097  53.1576 223.0865 0000753  96.1162   9.8828 15.34409994    15

Suivez STARLINK-34174 en temps réel avec AllMySat

Download on the App Store